Emporia, Virginia, United States (23847)
Lat: 36.69N, Lon: 77.54W
Wx Zone: VAZ087
Local Info
Past Weather Observations for Thursday, September 18, 2014

NOTE: This archive is for the closest National Weather Service station to Emporia. Information may differ from the station used for current weather conditions.

Click here for Long-term Archive

Time Weather Temperature Dewpoint Humidity Pressure Winds Precip Visibility
23:55
Fair
63°F / 17°C 59°F / 15°C 88% 30.09 in
(1019 mb)
Calm - 10SM
23:35
Fair
N/A N/A N/A N/A Calm -
23:15
Fair
N/A N/A N/A N/A Calm -
22:55
Fair
61°F / 16°C 57°F / 14°C 88% N/A Calm -
22:35
Fair
61°F / 16°C 57°F / 14°C 88% N/A Calm -
22:15
Clear
61°F / 16°C 57°F / 14°C 88% 30.09 in
(1019 mb)
Calm - 10SM
21:55
Clear
63°F / 17°C 57°F / 14°C 83% 30.09 in
(1019 mb)
Calm - 10SM
21:35
Partly Cloudy
63°F / 17°C 59°F / 15°C 88% 30.09 in
(1019 mb)
E 3.5 mph
(E 6 kph)
-
21:15
Mostly Cloudy
64°F / 18°C 59°F / 15°C 83% 30.09 in
(1019 mb)
E 4.6 mph
(E 7 kph)
- 10SM
20:55
Mostly Cloudy
64°F / 18°C 59°F / 15°C 83% 30.06 in
(1018 mb)
E 4.6 mph
(E 7 kph)
- 10SM
20:35
Mostly Cloudy
66°F / 19°C 59°F / 15°C 78% 30.06 in
(1018 mb)
E 5.8 mph
(E 9 kph)
- 10SM
20:15
Overcast
68°F / 20°C 59°F / 15°C 73% 30.06 in
(1018 mb)
E 5.8 mph
(E 9 kph)
- 10SM
19:55
Overcast
68°F / 20°C 61°F / 16°C 78% 30.06 in
(1018 mb)
E 5.8 mph
(E 9 kph)
- 10SM
19:35
Overcast
68°F / 20°C 61°F / 16°C 78% 30.06 in
(1018 mb)
E 4.6 mph
(E 7 kph)
- 10SM
19:15
Overcast
68°F / 20°C 63°F / 17°C 83% 30.04 in
(1017 mb)
ENE 4.6 mph
(ENE 7 kph)
- 10SM
18:55
Overcast
70°F / 21°C 63°F / 17°C 78% 30.04 in
(1017 mb)
ENE 4.6 mph
(ENE 7 kph)
- 10SM
18:35
Overcast
70°F / 21°C 63°F / 17°C 78% 30.04 in
(1017 mb)
E 3.5 mph
(E 6 kph)
- 10SM
18:15
Overcast
70°F / 21°C 63°F / 17°C 78% 30.04 in
(1017 mb)
Calm - 10SM
17:55
Overcast
70°F / 21°C 63°F / 17°C 78% 30.04 in
(1017 mb)
E 3.5 mph
(E 6 kph)
- 10SM
17:35
Overcast
72°F / 22°C 63°F / 17°C 73% 30.04 in
(1017 mb)
Calm - 10SM
17:15
Overcast
72°F / 22°C 63°F / 17°C 73% 30.04 in
(1017 mb)
Calm - 10SM
16:55
Overcast
73°F / 23°C 63°F / 17°C 69% N/A Calm - 10SM
16:35
Mostly Cloudy
73°F / 23°C 63°F / 17°C 69% 30.01 in
(1016 mb)
Calm - 10SM
16:15
Mostly Cloudy
73°F / 23°C 63°F / 17°C 69% 30.01 in
(1016 mb)
Calm - 10SM
15:55
Overcast
77°F / 25°C 61°F / 16°C 57% 30.01 in
(1016 mb)
Calm - 10SM
15:35
Overcast
75°F / 24°C 59°F / 15°C 57% 30.01 in
(1016 mb)
Calm - 10SM
15:15
Mostly Cloudy
77°F / 25°C 59°F / 15°C 54% 30.01 in
(1016 mb)
NE 3.5 mph
(NE 6 kph)
- 10SM
14:55
Partly Cloudy
77°F / 25°C 59°F / 15°C 54% 30.01 in
(1016 mb)
SE 3.5 mph
(SE 6 kph)
- 10SM
14:35
Mostly Cloudy
77°F / 25°C 59°F / 15°C 54% 30.01 in
(1016 mb)
Calm - 10SM
14:15
Overcast
75°F / 24°C 59°F / 15°C 57% 30.01 in
(1016 mb)
Calm - 10SM
13:55
Mostly Cloudy
77°F / 25°C 59°F / 15°C 54% N/A Calm - 10SM
13:35
Mostly Cloudy
75°F / 24°C 61°F / 16°C 61% 30.04 in
(1017 mb)
ENE 3.5 mph
(ENE 6 kph)
- 10SM
13:15
Overcast
77°F / 25°C 59°F / 15°C 54% 30.04 in
(1017 mb)
Calm - 10SM
12:55
Mostly Cloudy
75°F / 24°C 59°F / 15°C 57% 30.04 in
(1017 mb)
Calm - 10SM
12:35
Mostly Cloudy
73°F / 23°C 59°F / 15°C 61% 30.04 in
(1017 mb)
Calm - 10SM
12:15
Mostly Cloudy
73°F / 23°C 59°F / 15°C 61% 30.04 in
(1017 mb)
NE 3.5 mph
(NE 6 kph)
- 10SM
11:55
Partly Cloudy
75°F / 24°C 61°F / 16°C 61% 30.04 in
(1017 mb)
Calm - 10SM
11:35
Partly Cloudy
77°F / 25°C 59°F / 15°C 54% 30.04 in
(1017 mb)
Calm - 10SM
11:15
Clear
73°F / 23°C 61°F / 16°C 65% 30.04 in
(1017 mb)
SE 4.6 mph
(SE 7 kph)
- 10SM
10:55
Clear
73°F / 23°C 61°F / 16°C 65% 30.04 in
(1017 mb)
ENE 4.6 mph
(ENE 7 kph)
- 10SM
10:35
Partly Cloudy
73°F / 23°C 61°F / 16°C 65% 30.04 in
(1017 mb)
Calm - 10SM
10:15
Clear
72°F / 22°C 59°F / 15°C 65% 30.04 in
(1017 mb)
E 4.6 mph
(E 7 kph)
- 10SM
09:55
Clear
72°F / 22°C 61°F / 16°C 69% 30.04 in
(1017 mb)
NE 4.6 mph
(NE 7 kph)
- 10SM
09:35
Clear
72°F / 22°C 61°F / 16°C 69% 30.04 in
(1017 mb)
E 4.6 mph
(E 7 kph)
- 10SM
09:15
Clear
70°F / 21°C 61°F / 16°C 73% 30.04 in
(1017 mb)
E 4.6 mph
(E 7 kph)
- 10SM
08:55
Clear
70°F / 21°C 61°F / 16°C 73% 30.04 in
(1017 mb)
E 3.5 mph
(E 6 kph)
- 10SM
08:35
Clear
68°F / 20°C 61°F / 16°C 78% 30.04 in
(1017 mb)
Calm - 10SM
08:15
Clear
64°F / 18°C 61°F / 16°C 88% 30.04 in
(1017 mb)
Calm - 10SM
07:55
Clear
63°F / 17°C 61°F / 16°C 94% 30.04 in
(1017 mb)
E 3.5 mph
(E 6 kph)
- 10SM
07:35
Clear
61°F / 16°C 59°F / 15°C 94% 30.04 in
(1017 mb)
Calm - 10SM
07:15
Clear
61°F / 16°C 59°F / 15°C 94% 30.04 in
(1017 mb)
Calm - 10SM
06:55
Clear
Fog And Mist
57°F / 14°C 57°F / 14°C 100% 30.01 in
(1016 mb)
Calm - 5SM
06:35
Clear
Fog And Mist
55°F / 13°C 55°F / 13°C 100% 30.01 in
(1016 mb)
Calm - 3SM
06:15
Clear
Fog And Mist
55°F / 13°C 55°F / 13°C 100% 30.01 in
(1016 mb)
Calm - 4SM
05:55
Partly Cloudy
Fog And Mist
55°F / 13°C 55°F / 13°C 100% 30.01 in
(1016 mb)
Calm - 2 1/2SM
05:35
Mostly Cloudy
55°F / 13°C 55°F / 13°C 100% 30.01 in
(1016 mb)
Calm - 7SM
05:15
Mostly Cloudy
55°F / 13°C 55°F / 13°C 100% 30.01 in
(1016 mb)
Calm - 7SM
04:55
Overcast
55°F / 13°C 55°F / 13°C 100% 30.01 in
(1016 mb)
Calm - 7SM
04:35
Mostly Cloudy
Fog And Mist
54°F / 12°C 54°F / 12°C 100% 30.01 in
(1016 mb)
Calm - 4SM
04:15
Clear
Fog And Mist
54°F / 12°C 54°F / 12°C 100% 29.98 in
(1015 mb)
E 3.5 mph
(E 6 kph)
- 3SM
03:55
Clear
Fog And Mist
54°F / 12°C 54°F / 12°C 100% 29.98 in
(1015 mb)
Calm - 4SM
03:35
Clear
Fog And Mist
54°F / 12°C 54°F / 12°C 100% 29.98 in
(1015 mb)
Calm - 5SM
03:15
Clear
Fog And Mist
54°F / 12°C 54°F / 12°C 100% 29.98 in
(1015 mb)
E 3.5 mph
(E 6 kph)
- 4SM
02:55
Clear
Fog And Mist
54°F / 12°C 54°F / 12°C 100% 29.98 in
(1015 mb)
Calm - 4SM
02:35
Clear
Fog And Mist
54°F / 12°C 54°F / 12°C 100% 29.98 in
(1015 mb)
Calm - 3SM
02:15
Obscured
Fog
54°F / 12°C 54°F / 12°C 100% 29.98 in
(1015 mb)
Calm - 1/2SM
01:55
Obscured
Fog
54°F / 12°C 54°F / 12°C 100% 29.98 in
(1015 mb)
Calm - 1/2SM
01:35
Obscured
Fog And Mist
55°F / 13°C 55°F / 13°C 100% 29.98 in
(1015 mb)
Calm - 1SM
01:15
Obscured
Fog And Mist
55°F / 13°C 55°F / 13°C 100% 29.98 in
(1015 mb)
Calm - 3/4SM
00:55
Clear
Fog And Mist
55°F / 13°C 55°F / 13°C 100% 29.98 in
(1015 mb)
Calm - 5SM
00:35
Obscured
Fog
55°F / 13°C 55°F / 13°C 100% 29.98 in
(1015 mb)
Calm - 1/2SM
00:15
Obscured
Fog And Mist
57°F / 14°C 57°F / 14°C 100% 29.98 in
(1015 mb)
Calm - 1SM
Time Weather Temperature Dewpoint Humidity Pressure Winds Precip Visibility


Weather for websites

WeatherForYou.com, LLC is not responsible for any damages or problems caused by this service. Current weather conditions are obtained from the closest station including government and personal stations which may have varying degrees of accuracy. Weather forecasts are derived from the NOAA NDFD. Like all things, this site belongs to Jesus Christ... He just trusts me to maintain it. If you have any questions or comments email webmaster@weatherforyou.com

Copyright © 2014, WeatherForYou.com LLC. All rights reserved.